РПИ Актобе

РПИ Актобе является структурным подразделением дивизиона VATRUS сети VATSIM.

РПИ осуществляет свою деятельность в границах Актюбинской, Атырауской, Мангистауской и Западно-Казахстанской областей Республики Казахстан.

Схемы и аэронавигационную информацию можно получить на сайте   Казаэронавигация

Официальный Discord сервер региона Казахстан в VATSIM: https://discord.gg/eERFMeb2xR

Средства связи ОВД:

UATT_CTR - Актобе Контроль - 129.600

RU-CEN_FSS - Азия Центр  - 132.850 (РПИ: UACN, UAAA, UAII, UATT, UTAA, UCFM, UTAT, UTDD, UTTRUCFOUTSD, UTAVUTAK)

Лого Актобе
Руководство

Evgeny Vygornitsky*

Куратор

Dmitriy Bannov

Помощник куратора по Казахстану

Aleksandr Sokolov

Помощник куратора по Казахстану
Инструкторы РПИ
Aleksandr Sokolov (Instructor)
Evgeny Vygornitsky (Supervisor)
Входит в состав
Центральная Азия

Диспетчеры РПИ

Диспетчер Рейтинг Допуски *

Аэропорты РПИ

ICAO Город Название Погода
UATT Актобе Актобе UATT 190800Z 17003MPS CAVOK 34/10 Q1012 NOSIG RMK QFE739/0985
UATG Атырау Атырау UATG 190800Z 02005MPS 340V070 9999 SCT033CB 36/13 Q1012 NOSIG RMK QFE761/1014
UARR Уральск Уральск UARR 190800Z 28007MPS CAVOK 32/17 Q1010 NOSIG RMK QFE754/1006